Regional Weather Roundup
Issued by NWS

Home | Current Version | Previous Version | Text Only | Print | Product List | Glossary Off
Versions: 1 2 3 4 5 6 7 8 9 10 11 12 13 14 15 16 17 18 19 20 21 22 23 24 25 26 27 28 29 30 31 32 33 34 35 36 37 38 39 40 41 42 43 44 45 46 47 48 49 50

000
ASUS43 KLOT 281512
RWRIL

ILLINOIS REGIONAL WEATHER ROUNDUP
NATIONAL WEATHER SERVICE CHICAGO/ROMEOVILLE IL
1000 AM CDT THU MAY 28 2015

NOTE: "FAIR" INDICATES FEW OR NO CLOUDS BELOW 12,000 FEET WITH NO
SIGNIFICANT WEATHER AND/OR OBSTRUCTIONS TO VISIBILITY.

* THESE STATIONS ARE NOT UNDER NWS QUALITY CONTROL. THEY ALSO MAY NOT
  REPORT WEATHER SUCH AS PRECIPITATION OR FOG.

ILZ001-002-007-009-015-016-024-281600-
NORTHWEST ILLINOIS

CITY           SKY/WX    TMP DP  RH WIND       PRES   REMARKS
MOLINE         MOSUNNY   77  59  53 S12       30.17F
STERLING*      MOSUNNY   75  61  60 S7        30.20F
SAVANNA*       MOSUNNY   76  58  53 S7        30.18F
$$

ILZ003-004-008-010-011-017-018-281600-
NORTH CENTRAL ILLINOIS

CITY           SKY/WX    TMP DP  RH WIND       PRES   REMARKS
ROCKFORD       PTSUNNY   76  61  59 S9        30.21F
FREEPORT*      MOSUNNY   74  59  61 S9        30.21F
ROCHELLE*      SUNNY     74  60  61 S7        30.21F
DE KALB*       SUNNY     72  60  65 S8        30.23S
$$

ILZ005-006-012>014-019>023-281600-
NORTHEAST ILLINOIS

CITY           SKY/WX    TMP DP  RH WIND       PRES   REMARKS
CHICAGO-OHARE  MOSUNNY   75  57  53 S5        30.21R
CHICAGO-MIDWAY MOSUNNY   76  57  51 CALM      30.21S
AURORA         SUNNY     75  59  57 S6        30.22S
LANSING*       SUNNY     74  55  50 E3        30.23R
JOLIET*        SUNNY     75  60  58 SE5       30.22S
WAUKEGAN       SUNNY     75  58  55 SW6       30.20F
DUPAGE AIRPORT SUNNY     74  57  55 CALM      30.21S
KANKAKEE*      SUNNY     75  58  56 SE6       30.22F
WHEELING       SUNNY     75  57  53 CALM      30.22F
MORRIS*        SUNNY     75  58  54 S6        30.21S
ROMEOVILLE*    SUNNY     74  57  54 CALM      30.22S
NORTHERLY ISL    N/A     65  55  70 SE6         N/A
$$

LMZ740>746-281600-
SOUTHERN LAKE MICHIGAN

STATION/POSITION SKY/WX   TEMP    WIND        PRES    VSBY  WAVE
                          AIR SEA DIR/SP/G                  HT/PER
                          (F)     (DEG/KT/KT) (MB)    (MI)  (FT/S)
SOUTHERN BUOY              45 38  200/  6/  8 1024.1R         0
HARRISON CRIB              64     130/ 11/ 11   N/A
BURNHAM HARBOR             65     140/  4/  5   N/A
CALUMET HARBOR             66      80/  4/  5   N/A
BURNS HARBOR               67      10/  3/  5 1023.7S
MICHIGAN CITY              67     140/  9/ 10   N/A
MICHIGAN CITY 6N           60 54  110/  2/  4   N/A           0
ST. JOSEPH                 58 57  270/  2/  4   N/A           0
$$

ILZ025>027-034>036-040-047-049-050-058-095>099-281600-
WEST-CENTRAL ILLINOIS

CITY           SKY/WX    TMP DP  RH WIND       PRES   REMARKS
QUINCY         MOSUNNY   75  56  51 SE10      30.15F
GALESBURG*     SUNNY     74  58  58 SE6       30.18F
MACOMB*        SUNNY     74  58  58 SE10      30.20F
JACKSONVILLE*  MOSUNNY   77  59  53 SE13      30.16F
PITTSFIELD*    MOSUNNY   75  58  54 E9        30.16F
$$

ILZ028>032-037-038-041>044-048-051>054-059>061-281600-
CENTRAL ILLINOIS

CITY           SKY/WX    TMP DP  RH WIND       PRES   REMARKS
PONTIAC        SUNNY     77  57  50 SE8       30.22F
BLOOMINGTON    SUNNY     75  59  57 SE13      30.22F
DECATUR        SUNNY     76  53  44 E16       30.19F
PEORIA         SUNNY     78  56  46 SE8       30.20F
LACON*         SUNNY     75  55  48 SE9       30.19F
LINCOLN*       SUNNY     76  52  42 SE10G17   30.18F
SPRINGFIELD    SUNNY     76  56  49 SE13      30.18F
TAYLORVILLE    SUNNY     73  59  60 E9        30.18F
$$

ILZ033-039-045-046-055>057-062-063-281600-
EAST-CENTRAL ILLINOIS

CITY           SKY/WX    TMP DP  RH WIND       PRES   REMARKS
CHAMPAIGN      SUNNY     76  52  43 E14G21    30.21S
DANVILLE*      SUNNY     74  53  47 E9        30.19F
RANTOUL*       SUNNY     77  57  49 E13G20    30.21S
PARIS*         SUNNY     76  53  43 E10       30.21S
$$

ILZ079-100>102-281600-
SOUTHWEST ILLINOIS

CITY           SKY/WX    TMP DP  RH WIND       PRES   REMARKS
ALTON          MOSUNNY   75  66  73 E8        30.15F
BELLEVILLE     SUNNY     76  70  82 E8        30.13F
CAHOKIA*       MOSUNNY   77  67  71 E8        30.14F
SPARTA*        MOSUNNY   75  69  81 SE3       30.16F
$$

ILZ064>066-069>071-074>076-080>082-084>086-088>090-092>094-281600-
SOUTH-CENTRAL ILLINOIS

CITY           SKY/WX    TMP DP  RH WIND       PRES   REMARKS
CARBONDALE     CLOUDY    74  68  81 SE7       30.17S
CAIRO*         MOSUNNY   74  66  75 CALM      30.17F
EFFINGHAM*     SUNNY     76  58  53 E6        30.19F
MARION         PTSUNNY   75  68  78 MISG      30.18F
MT. VERNON     PTSUNNY   75  66  73 S6        30.18F
CENTRALIA*     SUNNY     79  65  64 E5        30.16F HX  80
SALEM*         SUNNY     76  66  71 SE3       30.17F
METROPOLIS*    MOSUNNY   76  65  70 CALM      30.17F
$$

ILZ067-068-072-073-078-083-087-091-281600-
SOUTHEAST ILLINOIS

CITY           SKY/WX    TMP DP  RH WIND       PRES   REMARKS
LAWRENCEVILLE  SUNNY     77  64  64 SE6       30.19S
FLORA*         MOSUNNY   71  67  85 CALM      30.18F HAZE
FAIRFIELD*     MOSUNNY   76  68  76 CALM      30.17S
HARRISBURG*    CLOUDY    69  69 100 CALM      30.20S FOG
ROBINSON*      SUNNY     77  63  61 SE9       30.19F
CARMI*         MOSUNNY   77  64  65 SE3       30.18F
$$

ABBREVIATIONS USED IN REMARKS
   TC - TEMPERATURE IN CELSIUS
  WCI - WIND CHILL INDEX
   HX - HEAT INDEX
  VSB - VISIBILITY
$$




USA.gov is the U.S. government's official web portal to all federal, state and local government web resources and services.